{"data":{"norad_id":64015,"epoch":"2026-05-24T18:35:38.732640Z","epoch_age_seconds":93816,"freshness":"FRESH","line1":"1 64015U 25101X   26144.77475385  .00010108  00000+0  37648-3 0  9998","line2":"2 64015  43.0013 288.0804 0001268 276.7627  83.3080 15.27568531 58696","mean_motion":15.27568531,"eccentricity":0.0001268,"inclination_deg":43.0013,"raan_deg":288.0804,"arg_perigee_deg":276.7627,"mean_anomaly_deg":83.308,"bstar":0.00037648,"rev_number":5869,"period_min":94.267456469356,"perigee_km":482.21343581486,"apogee_km":483.95344131808,"semimajor_km":6861.2204385665,"source":"CELESTRAK","updated_at":"2026-05-25T13:38:20.222288Z"}}